COSMOS 2593

Last updated on Sun Sep 14 2025 00:02:06 GMT+0000 (Coordinated Universal Time)

1 65269U 25182C 25254.40374829 .00033574 00000+0 16591-3 0 9997 2 65269 96.5872 187.5772 0015866 160.6701 199.5175 15.81818717 3312
UTC large
Height (km)
Speed (km/s)
/
Latitude / Longitude
Inclination (degrees)
Orbital Period (minutes)
Azimuth
Elevation
Range (km)
Doppler Factor

Next 0 passes for location: London (51.5072 / 0.1276)

Sorry there are no passes over London.